Погода в Краснене

Россия / Чукотский автономный округ     64°37′48″N   174°46′36″E
темп.,
°C
ветер,
м/с
пор.,
м/с
влажн.,
%
обл.,
%
осадки,
мм/ч
давл.,
гПа
погр.,
м
2 июля, сб
сб200:00+9всв101592100 2.3 998786
03:00+9всв91592100 1.0 997747
06:00+8всв81491100 1.9 997696
09:00+8всв71291100 0.3 997625
12:00+8всв71188100 0.7 998572
15:00+9всв5688100 0.6 998442
18:00+8в5689100 0.6 998321
21:00+9всв5788100 0.0 1000243
3 июля, вс
вс300:00+8всв61091100 0.0 1001213
03:00+5всв6109524 0.0 1003158
06:00+8всв7108399 0.0 1003350
09:00+10в8126889 0.0 1004800
12:00+11в101368100 0.0 1005922
15:00+13в111264100 0.0 10041047
18:00+12в101169100 0.0 1005869
21:00+10всв6979100 0.1 1006454
4 июля, пн
пн400:00+8всв5788100 0.1 1008231
03:00+7всв5691100 0.0 1008219
06:00+9всв678598 0.0 1009355
09:00+9в7882100 0.0 1010401
12:00+12в6669100 0.0 1010774
15:00+12в666667 0.0 1010827
18:00+11в677099 0.0 1010547
21:00+10всв4677100 0.0 1011306
5 июля, вт
вт500:00+9всв358398 0.0 1011167
03:00+8всв3590100 0.0 1011139
06:00+10всв458299 0.0 1012361
09:00+10всв4578100 0.0 1012468
12:00+11в4477100 0.1 1012495
15:00+11в3374100 0.1 1012599
18:00+11в337397 0.1 1012588
21:00+10вюв2381100 0.0 101287
6 июля, ср
ср600:00+9вюв2286100 0.1 101127
03:00+9в1187100 0.0 101121
06:00+10вюв118084 0.0 1011270
09:00+12вюв117279 0.0 1010687
12:00+14ю226386 0.0 10081041
15:00+15ю236090 0.0 1008849
18:00+16ю345599 0.0 10071193
21:00+14ююв3463100 0.0 100677